カタログに戻る

GEESAT 1-07

運用中通信LEO
NORAD 52791·PAYLOAD·🇨🇳 China

打ち上げ Jun 2, 2022 から Xichang Satellite Launch Center

Loading…

次のパス (今後24時間)

TLE

最新Source: Space-Track

元期: Sep 14, 2026, 20:49 UTC

1 52791U 22058G   26257.86739888  .00001272  00000-0  18825-3 0  9999
2 52791  49.9882 147.2129 0012571  77.4033 282.8309 14.81599377233220

AllMySatでGEESAT 1-07をリアルタイム追跡

Download on the App Store